Nathan Matthews

Recruteur en chef - Peterborough United
17 Avr 2029
Mardi
Processus

Personnalité

Adaptabilité (10) Ambition (18) Controverse (9) Loyauté (19) Pression (6) Professionnalisme (1) Sportivité (19) Tempérament (14)

Profil

Style d'entraînement Démocratique
Diplôme National B
Détermination 8
Gestion des joueurs 11
Motivation 5
Discipline 11
Satisfaction professionnelle
100%
Fatigue
0%
Rôle Recruteur en chef
Salaire 14.9K p/s
Contrat 14.03.2030

Performance

Comportement Bon
Efficacité de l'entraînement
29%
Développement des joueurs
55%
Prévention des blessures
30%
Mise en place tactique
15%

Suivi en cours

55
Joueur Club Statut Capacité Confiance Observé Dernière observation Dernier vote
Malcolm Ebiowei Swindon Town Rapport prêt 107 / 103 69% 1 29.01.2029 -
Jack Grimmer Derby County Rapport prêt 112 / 96 69% 1 22.01.2029 -
Andrea Mattioli Arzignano Actif 119 / 113 40% 1 12.08.2028 -
Marcus Ingvartsen San Diego Football Club Actif 131 / 129 40% 1 12.08.2028 -
Simone Mazzocchi Cosenza Actif 124 / 134 40% 1 09.08.2028 -
Nicola Rauti Vicenza Actif 123 / 114 40% 1 08.08.2028 -
Kimarni Smith Newport County Actif 98 / 107 40% 1 08.08.2028 -
Dale Taylor Blackpool Actif 124 / 113 40% 1 08.08.2028 -
Liam Thompson Mansfield Town Actif 124 / 118 40% 1 09.06.2028 -
Andy Rinomhota Reading Actif 128 / 127 40% 1 09.06.2028 -
Di'Shon Bernard Sheffield Wednesday Actif 126 / 115 40% 1 09.06.2028 -
Ryan Barnett Wrexham Actif 123 / 121 40% 1 06.06.2028 -
Cameron Pring Bristol City Actif 137 / 137 40% 1 07.01.2028 -
Tom Davies Walsall Actif 137 / 137 40% 1 07.01.2028 -
Bogdan Nita Deportes Tolima Actif 114 / 114 66% 1 01.01.2028 Approuver
Ovidiu Dragusin Club America Actif 119 / 123 66% 1 01.01.2028 Approuver
Dato Shengelia Carabobo Actif 94 / 95 66% 1 01.01.2028 Approuver
Pavel Maslov Chaika Actif 99 / 95 40% 1 30.06.2027 -
Aden Baldwin Barnet Actif 105 / 107 40% 2 28.06.2027 -
Charlie Goode Colchester United Actif 120 / 121 40% 3 27.06.2027 -
Lewis Wing Reading Actif 123 / 107 40% 2 26.06.2027 -
Jenson Metcalfe Bradford City Actif 109 / 103 40% 1 26.06.2027 -
George Byers Port Vale Actif 121 / 110 40% 2 25.06.2027 -
Cohen Bramall Crawley Town Actif 103 / 121 40% 1 25.06.2027 -
Isaac Hayden Leyton Orient Actif 128 / 103 40% 2 24.06.2027 -
Alan Cervantes Club America Actif 131 / 105 40% 2 21.06.2027 -
Bojan Roganović Torpedo Moscow Actif 110 / 103 40% 1 20.06.2027 -
Denzel Hall Rotherham United Actif 115 / 118 40% 1 19.06.2027 -
Harvey Rodgers Barnet Actif 106 / 87 40% 1 17.06.2027 -
Tennai Watson Barrow AFC Actif 96 / 105 40% 1 15.06.2027 -
Elmir Nabiullin Arsenal Tula Actif 107 / 112 40% 1 14.06.2027 -
Ben Osborn Stockport County Actif 122 / 106 40% 1 31.01.2027 -
Goodman Mosele Chippa United Actif 106 / 131 40% 1 31.01.2027 -
Imad Riahi Hearts of Oak Actif 115 / 117 40% 3 29.01.2027 -
Simon Ramabu Polokwane City Actif 116 / 117 40% 2 29.01.2027 -
Juan Pablo Gallego Doxa Actif 102 / 127 40% 1 28.01.2027 -
Pablo García Gijón Actif 109 / 121 40% 1 28.01.2027 -
Abbubaker Mobara Chippa United Actif 118 / 110 40% 1 26.01.2027 -
Velemseni Ndwandwe Golden Arrows Actif 97 / 110 40% 1 25.01.2027 -
Jonathan Acquah WAFA Actif 96 / 95 40% 1 24.01.2027 -
Gavin Kilkenny Swindon Town Actif 108 / 97 40% 1 24.01.2027 -
Darko Todorović Fakel Actif 107 / 99 40% 1 23.01.2027 -
Guilherme Houston Dynamo Actif 136 / 104 40% 1 23.01.2027 -
Iuri Medeiros Ujpest Actif 129 / 112 40% 2 22.01.2027 -
Aleksei Samoylov Haladas Actif 124 / 103 40% 1 22.01.2027 -
Bobby Pointon Bradford City Actif 104 / 118 40% 1 21.01.2027 -
Amos Inusah BA All Stars Actif 98 / 92 40% 1 19.01.2027 -
Jan Bürger Burton Albion Actif 102 / 118 40% 1 18.01.2027 -
Mickel Miller Bromley Actif 112 / 123 40% 1 17.01.2027 -
Charles Vernam Grimsby Town Actif 101 / 95 40% 1 17.01.2027 -
Saleh Abu Al-Shamat Zamalek Actif 108 / 134 40% 1 13.01.2027 -
Nicolas Moumi Ngamaleu Pafos Actif 116 / 142 40% 1 13.01.2027 -
Zizo Al Ahly Actif 149 / 133 40% 1 11.01.2027 -
Jody February Mamelodi Sundowns Actif 100 / 130 40% 1 10.08.2026 -
Ethan Horvath New York Red Bulls Actif 109 / 127 40% 1 10.08.2026 -